Regional Weather Roundup
Issued by NWS Sioux Falls, SD

Home | Current Version | Previous Version | Graphics & Text | Print | Product List | Glossary Off
Versions: 1 2 3 4 5 6 7 8 9 10 11 12 13 14 15 16 17 18 19 20 21 22 23 24 25 26 27 28 29 30 31 32 33 34 35 36 37 38 39 40 41 42 43 44 45 46 47 48 49 50

000
ASUS43 KFSD 291802
RWRFSD

WEATHER ROUNDUP FOR SE SOUTH DAKOTA/SW MINNESOTA/NW IOWA
NATIONAL WEATHER SERVICE SIOUX FALLS SD
100 PM CDT THU SEP 29 2016

NOTE: "FAIR" INDICATES FEW OR NO CLOUDS BELOW 12,000 FEET WITH NO
SIGNIFICANT WEATHER AND OR OBSTRUCTIONS TO VISIBILITY.


SDZ038>040-050-052>070-291900-
SOUTHEAST SOUTH DAKOTA

CITY           SKY/WX    TMP DP  RH WIND       PRES   REMARKS
CHAMBERLAIN    FAIR      68  47  48 SE12G18   30.41F
6HR MIN TEMP:  41; 6HR MAX TEMP:  68;

HURON          FAIR      64  48  56 SE10      30.44F
6HR MIN TEMP:  37; 6HR MAX TEMP:  64;

MADISON        FAIR      61  48  63 NE5       30.46F
MITCHELL       FAIR      65  47  52 VRB6      30.44F
6HR MIN TEMP:  37; 6HR MAX TEMP:  66;

SIOUX FALLS    FAIR      64  48  56 SE5       30.45F
6HR MIN TEMP:  40; 6HR MAX TEMP:  64;

WINNER         FAIR      70  45  40 SE15      30.39F
YANKTON        FAIR      63  48  59 E6        30.43F
$$

MNZ071-072-080-081-089-090-097-098-291900-
SOUTHWEST MINNESOTA

CITY           SKY/WX    TMP DP  RH WIND       PRES   REMARKS
FAIRMONT       FAIR      60  51  72 N8        30.46F
JACKSON        FAIR      61  46  59 NE8       30.46F
LUVERNE        PTSUNNY   63  45  51 E3        30.46F
MARSHALL       FAIR      61  48  62 VRB3      30.47F
6HR MIN TEMP:  38; 6HR MAX TEMP:  61;

MONTEVIDEO     CLOUDY    63  48  59 S5        30.49S
PIPESTONE      FAIR      63  46  55 E6        30.46S
REDWOOD FALLS  CLOUDY    62  49  62 E6        30.47F
TRACY          PTSUNNY   62  50  64 CALM      30.47F
WINDOM         PTSUNNY   63  48  59 N5        30.46F
WORTHINGTON    PTSUNNY   62  49  62 NE3       30.46F
$$

IAZ001>003-012>014-020>022-031-032-NEZ013-014-SDZ071-291900-
NORTHWEST IOWA

CITY           SKY/WX    TMP DP  RH WIND       PRES   REMARKS
CHEROKEE       FAIR      65  52  61 NE8       30.44F
DENISON        FAIR      66  50  55 VRB7G14   30.40F
ESTHERVILLE    FAIR      59  54  83 N10       30.46F
LE MARS          N/A    N/A N/A N/A MISG        N/A
ORANGE CITY    FAIR      64  52  63 CALM      30.45F
SHELDON        FAIR      64  48  55 E8        30.43F
SIOUX CITY     FAIR      67  51  56 VRB3      30.44F
6HR MIN TEMP:  42; 6HR MAX TEMP:  67;

SPENCER        FAIR      66  52  60 NE9       30.44F
6HR MIN TEMP:  38; 6HR MAX TEMP:  66;

STORM LAKE     FAIR      64  50  59 E7        30.44F
$$

ABBREVIATIONS USED IN REMARKS
   TC - TEMPERATURE IN CELSIUS
  WCI - WIND CHILL INDEX
   HX - HEAT INDEX
  VSB - VISIBILITY





USA.gov is the U.S. government's official web portal to all federal, state and local government web resources and services.